TimeEDT,TemperatureF,Dew PointF,Humidity,Sea Level PressureIn,VisibilityMPH,Wind Direction,Wind SpeedMPH,Gust SpeedMPH,PrecipitationIn,Events,Conditions,WindDirDegrees,DateUTC
12:52 AM,44.1,28.9,55,30.25,10.0,NNW,8.1,-,N/A,,Overcast,330,2013-03-29 04:52:00
1:52 AM,45.0,28.9,53,30.25,10.0,NW,9.2,-,N/A,,Overcast,320,2013-03-29 05:52:00
2:52 AM,45.0,28.9,53,30.25,10.0,NW,12.7,-,N/A,,Overcast,320,2013-03-29 06:52:00
3:52 AM,43.0,28.0,56,30.24,10.0,NNW,8.1,-,N/A,,Mostly Cloudy,340,2013-03-29 07:52:00
4:52 AM,43.0,28.0,56,30.25,10.0,WNW,8.1,-,N/A,,Mostly Cloudy,300,2013-03-29 08:52:00
5:52 AM,43.0,27.0,53,30.25,10.0,NW,8.1,-,N/A,,Mostly Cloudy,310,2013-03-29 09:52:00
6:52 AM,43.0,26.1,51,30.25,10.0,NW,9.2,-,N/A,,Mostly Cloudy,310,2013-03-29 10:52:00
7:52 AM,44.1,27.0,51,30.27,10.0,NNW,8.1,-,N/A,,Scattered Clouds,330,2013-03-29 11:52:00
8:52 AM,46.9,28.9,50,30.27,10.0,NNW,16.1,20.7,N/A,,Scattered Clouds,330,2013-03-29 12:52:00
9:52 AM,48.9,28.0,44,30.27,10.0,NW,9.2,-,N/A,,Mostly Cloudy,310,2013-03-29 13:52:00
10:52 AM,51.1,28.9,43,30.26,10.0,NW,8.1,-,N/A,,Mostly Cloudy,320,2013-03-29 14:52:00
11:52 AM,53.1,28.9,40,30.25,10.0,NNW,15.0,19.6,N/A,,Mostly Cloudy,330,2013-03-29 15:52:00
12:52 PM,57.0,28.9,34,30.22,10.0,NNW,16.1,20.7,N/A,,Mostly Cloudy,330,2013-03-29 16:52:00
1:52 PM,57.0,27.0,32,30.20,10.0,NW,12.7,21.9,N/A,,Mostly Cloudy,320,2013-03-29 17:52:00
2:52 PM,55.0,23.0,29,30.18,10.0,NNW,23.0,27.6,N/A,,Mostly Cloudy,330,2013-03-29 18:52:00
3:52 PM,55.9,25.0,30,30.17,10.0,NNW,12.7,-,N/A,,Mostly Cloudy,330,2013-03-29 19:52:00
4:52 PM,57.0,25.0,29,30.16,10.0,NW,12.7,21.9,N/A,,Mostly Cloudy,310,2013-03-29 20:52:00
5:52 PM,55.0,25.0,31,30.16,10.0,NNW,9.2,-,N/A,,Mostly Cloudy,330,2013-03-29 21:52:00
6:52 PM,55.0,24.1,30,30.17,10.0,West,8.1,-,N/A,,Mostly Cloudy,280,2013-03-29 22:52:00
7:52 PM,53.1,24.1,32,30.17,10.0,West,5.8,-,N/A,,Scattered Clouds,270,2013-03-29 23:52:00
8:52 PM,52.0,23.0,32,30.18,10.0,West,3.5,-,N/A,,Scattered Clouds,280,2013-03-30 00:52:00
9:52 PM,48.9,26.1,41,30.21,10.0,WSW,3.5,-,N/A,,Scattered Clouds,250,2013-03-30 01:52:00
10:52 PM,46.9,35.1,63,30.21,10.0,SE,3.5,-,N/A,,Scattered Clouds,130,2013-03-30 02:52:00
11:52 PM,48.0,32.0,54,30.22,10.0,Calm,Calm,-,N/A,,Mostly Cloudy,0,2013-03-30 03:52:00